SWA3077 KMCI-KPNS

Flight info

Callsign SWA3077
Flight time 1h 31m
Altitude 39000
Route RACER8 SGF UJM MEI CATLN PENSI
Aircraft B738/M-SADE2E3GIJ4RWZ/LB1D1

Departure

Time 2026-04-26 14:42
Airport Kansas City International Airport (KMCI)

Arrival

Time 2026-04-26 16:13
Airport Pensacola International Airport (KPNS)
Time Latitude Longitude Altitude Speed Heading
2026-04-26 14:25 39.29303 -94.71978 1021 ft 0 kts 50°
2026-04-26 14:36 39.29300 -94.71982 1021 ft 2 kts 46°
2026-04-26 14:36 39.29293 -94.71992 1021 ft 3 kts 346°
2026-04-26 14:36 39.29287 -94.71984 1021 ft 3 kts 285°
2026-04-26 14:36 39.29285 -94.71967 1021 ft 1 kts 275°
2026-04-26 14:37 39.29285 -94.71963 1021 ft 0 kts 275°
2026-04-26 14:38 39.29277 -94.72005 1021 ft 11 kts 249°
2026-04-26 14:38 39.29254 -94.72104 1022 ft 12 kts 265°
2026-04-26 14:39 39.29259 -94.72207 1022 ft 11 kts 277°
2026-04-26 14:39 39.29268 -94.72308 1022 ft 11 kts 276°
2026-04-26 14:39 39.29276 -94.72405 1022 ft 11 kts 276°
2026-04-26 14:39 39.29285 -94.72506 1022 ft 13 kts 276°
2026-04-26 14:40 39.29288 -94.72641 1022 ft 16 kts 244°
2026-04-26 14:40 39.29213 -94.72652 1022 ft 12 kts 146°
2026-04-26 14:40 39.29143 -94.72635 1021 ft 10 kts 188°
2026-04-26 14:40 39.29087 -94.72612 1022 ft 8 kts 113°
2026-04-26 14:41 39.29083 -94.72579 1022 ft 0 kts 96°
2026-04-26 14:41 39.29075 -94.72478 1022 ft 41 kts 96°
2026-04-26 14:41 39.29017 -94.71795 1021 ft 110 kts 96°
2026-04-26 14:42 39.28912 -94.70555 1069 ft 161 kts 97°
2026-04-26 14:42 39.28787 -94.69114 1817 ft 163 kts 98°
2026-04-26 14:42 39.28728 -94.67631 2648 ft 170 kts 96°
2026-04-26 14:42 39.28711 -94.66021 3180 ft 194 kts 95°
2026-04-26 14:43 39.28445 -94.64251 3418 ft 216 kts 121°
2026-04-26 14:43 39.27337 -94.62917 3750 ft 226 kts 159°
2026-04-26 14:43 39.25736 -94.62478 4093 ft 246 kts 175°
2026-04-26 14:43 39.23987 -94.62351 4768 ft 256 kts 178°
2026-04-26 14:44 39.22213 -94.62278 5711 ft 256 kts 178°
2026-04-26 14:44 39.20417 -94.62206 6556 ft 260 kts 178°
2026-04-26 14:44 39.18584 -94.62124 7305 ft 267 kts 178°
2026-04-26 14:44 39.16735 -94.62033 8079 ft 272 kts 178°
2026-04-26 14:45 39.14832 -94.61931 8885 ft 276 kts 178°
2026-04-26 14:45 39.13528 -94.61857 9413 ft 280 kts 178°
2026-04-26 14:45 39.10915 -94.61706 10369 ft 289 kts 178°
2026-04-26 14:45 39.08825 -94.61582 10596 ft 313 kts 179°
2026-04-26 14:46 39.06557 -94.61446 10757 ft 338 kts 179°
2026-04-26 14:46 39.04158 -94.61299 11193 ft 351 kts 178°
2026-04-26 14:46 39.01700 -94.61027 11822 ft 358 kts 171°
2026-04-26 14:46 38.99298 -94.60073 12482 ft 366 kts 157°
2026-04-26 14:47 38.97052 -94.58478 13160 ft 372 kts 149°
2026-04-26 14:47 38.94840 -94.56710 13814 ft 378 kts 149°
2026-04-26 14:47 38.92632 -94.54923 14429 ft 382 kts 149°
2026-04-26 14:47 38.90380 -94.53101 15116 ft 384 kts 149°
2026-04-26 14:48 38.88109 -94.51273 15796 ft 387 kts 150°
2026-04-26 14:48 38.85811 -94.49435 16429 ft 391 kts 150°
2026-04-26 14:48 38.83493 -94.47590 17074 ft 394 kts 151°
2026-04-26 14:48 38.81149 -94.45732 17720 ft 398 kts 151°
2026-04-26 14:49 38.78781 -94.43859 18329 ft 401 kts 151°
2026-04-26 14:49 38.76397 -94.41976 18868 ft 405 kts 152°
2026-04-26 14:49 38.74017 -94.40100 19440 ft 408 kts 152°
2026-04-26 14:49 38.71595 -94.38191 19981 ft 411 kts 152°
2026-04-26 14:50 38.69151 -94.36267 20517 ft 414 kts 152°
2026-04-26 14:50 38.66686 -94.34328 21046 ft 417 kts 152°
2026-04-26 14:50 38.64205 -94.32378 21559 ft 420 kts 152°
2026-04-26 14:50 38.61704 -94.30414 22066 ft 423 kts 152°
2026-04-26 14:51 38.59184 -94.28437 22558 ft 427 kts 152°
2026-04-26 14:51 38.56645 -94.26446 23049 ft 430 kts 152°
2026-04-26 14:51 38.54090 -94.24444 23515 ft 433 kts 153°
2026-04-26 14:51 38.51513 -94.22427 23904 ft 436 kts 153°
2026-04-26 14:52 38.48923 -94.20401 24314 ft 438 kts 153°
2026-04-26 14:52 38.46354 -94.18393 24708 ft 440 kts 153°
2026-04-26 14:52 38.43735 -94.16348 25092 ft 443 kts 153°
2026-04-26 14:52 38.41101 -94.14293 25471 ft 445 kts 153°
2026-04-26 14:53 38.38451 -94.12227 25845 ft 448 kts 153°
2026-04-26 14:53 38.35787 -94.10153 26211 ft 450 kts 153°
2026-04-26 14:53 38.33105 -94.08066 26573 ft 452 kts 153°
2026-04-26 14:53 38.30414 -94.05974 26926 ft 455 kts 153°
2026-04-26 14:54 38.27708 -94.03872 27260 ft 458 kts 153°
2026-04-26 14:54 38.24977 -94.01754 27568 ft 461 kts 154°
2026-04-26 14:54 38.22235 -93.99628 27883 ft 463 kts 154°
2026-04-26 14:54 38.19476 -93.97490 28181 ft 466 kts 154°
2026-04-26 14:55 38.16699 -93.95341 28492 ft 469 kts 154°
2026-04-26 14:55 38.13944 -93.93211 28792 ft 471 kts 154°
2026-04-26 14:55 38.11135 -93.91041 29065 ft 474 kts 154°
2026-04-26 14:55 38.08304 -93.88856 29325 ft 477 kts 154°
2026-04-26 14:56 38.05464 -93.86666 29609 ft 480 kts 154°
2026-04-26 14:56 38.02604 -93.84462 29875 ft 482 kts 154°
2026-04-26 14:56 37.99730 -93.82249 30116 ft 484 kts 154°
2026-04-26 14:56 37.96847 -93.80031 30401 ft 485 kts 154°
2026-04-26 14:57 37.93966 -93.77816 30761 ft 484 kts 154°
2026-04-26 14:57 37.91132 -93.75638 31123 ft 482 kts 154°
2026-04-26 14:57 37.88268 -93.73440 31453 ft 482 kts 155°
2026-04-26 14:57 37.85403 -93.71245 31739 ft 482 kts 155°
2026-04-26 14:58 37.82537 -93.69051 32053 ft 481 kts 155°
2026-04-26 14:58 37.79671 -93.66859 32397 ft 480 kts 155°
2026-04-26 14:58 37.76815 -93.64677 32708 ft 480 kts 155°
2026-04-26 14:58 37.73957 -93.62495 32996 ft 480 kts 155°
2026-04-26 14:59 37.71101 -93.60318 33285 ft 480 kts 155°
2026-04-26 14:59 37.68244 -93.58140 33601 ft 479 kts 156°
2026-04-26 14:59 37.65430 -93.55998 33893 ft 478 kts 156°
2026-04-26 14:59 37.63506 -93.54534 34072 ft 478 kts 156°
2026-04-26 15:00 37.59736 -93.51668 34398 ft 478 kts 156°
2026-04-26 15:00 37.56887 -93.49505 34643 ft 477 kts 156°
2026-04-26 15:00 37.54044 -93.47349 34891 ft 477 kts 156°
2026-04-26 15:00 37.51206 -93.45197 35158 ft 476 kts 156°
2026-04-26 15:01 37.48374 -93.43052 35426 ft 475 kts 156°
2026-04-26 15:01 37.45546 -93.40912 35663 ft 474 kts 156°
2026-04-26 15:01 37.42718 -93.38773 35894 ft 474 kts 156°
2026-04-26 15:01 37.39894 -93.36641 36105 ft 474 kts 156°
2026-04-26 15:02 37.37068 -93.34509 36292 ft 474 kts 157°
2026-04-26 15:02 37.34322 -93.32280 36522 ft 479 kts 151°
2026-04-26 15:02 37.31671 -93.29737 36782 ft 480 kts 149°
2026-04-26 15:02 37.29063 -93.27108 36958 ft 481 kts 148°
2026-04-26 15:03 37.26462 -93.24443 36930 ft 485 kts 148°
2026-04-26 15:03 37.21247 -93.19113 36926 ft 482 kts 148°
2026-04-26 15:04 37.16035 -93.13867 36923 ft 479 kts 149°
2026-04-26 15:04 37.10830 -93.08685 36927 ft 476 kts 149°
2026-04-26 15:05 37.05679 -93.03580 36931 ft 475 kts 149°
2026-04-26 15:05 37.00488 -92.98444 36921 ft 476 kts 149°
2026-04-26 15:06 36.95284 -92.93303 36921 ft 477 kts 149°
2026-04-26 15:06 36.90062 -92.88149 36928 ft 480 kts 149°
2026-04-26 15:07 36.82206 -92.80412 36931 ft 483 kts 149°
2026-04-26 15:07 36.76907 -92.75206 36931 ft 486 kts 149°
2026-04-26 15:08 36.71586 -92.69985 36925 ft 488 kts 149°
2026-04-26 15:08 36.66241 -92.64751 36938 ft 489 kts 149°
2026-04-26 15:09 36.60878 -92.59509 36950 ft 490 kts 149°
2026-04-26 15:09 36.55507 -92.54269 36952 ft 491 kts 149°
2026-04-26 15:10 36.51032 -92.49909 36962 ft 492 kts 149°
2026-04-26 15:10 36.44772 -92.43822 36968 ft 492 kts 149°
2026-04-26 15:11 36.39383 -92.38594 36966 ft 491 kts 149°
2026-04-26 15:11 36.34002 -92.33381 36967 ft 490 kts 149°
2026-04-26 15:12 36.28662 -92.28218 36960 ft 490 kts 149°
2026-04-26 15:12 36.23288 -92.23031 36956 ft 489 kts 149°
2026-04-26 15:13 36.17915 -92.17856 36948 ft 489 kts 149°
2026-04-26 15:13 36.12544 -92.12692 36944 ft 489 kts 149°
2026-04-26 15:14 36.07164 -92.07528 36950 ft 490 kts 149°
2026-04-26 15:14 36.01813 -92.02401 36951 ft 490 kts 150°
2026-04-26 15:15 35.96422 -91.97244 36958 ft 490 kts 150°
2026-04-26 15:15 35.91026 -91.92092 36973 ft 491 kts 150°
2026-04-26 15:16 35.85609 -91.86931 36963 ft 492 kts 150°
2026-04-26 15:16 35.80188 -91.81773 36986 ft 492 kts 150°
2026-04-26 15:17 35.75676 -91.77486 36982 ft 493 kts 150°
2026-04-26 15:17 35.69355 -91.71492 36987 ft 494 kts 150°
2026-04-26 15:18 35.63902 -91.66331 36989 ft 495 kts 150°
2026-04-26 15:18 35.58444 -91.61175 36989 ft 495 kts 150°
2026-04-26 15:19 35.53005 -91.56046 36973 ft 496 kts 150°
2026-04-26 15:19 35.47526 -91.50888 36982 ft 497 kts 150°
2026-04-26 15:20 35.42040 -91.45733 36980 ft 497 kts 150°
2026-04-26 15:20 35.36547 -91.40579 36980 ft 497 kts 150°
2026-04-26 15:21 35.31047 -91.35428 36981 ft 498 kts 150°
2026-04-26 15:21 35.25582 -91.30319 36983 ft 498 kts 150°
2026-04-26 15:22 35.20082 -91.25186 36979 ft 497 kts 150°
2026-04-26 15:22 35.14578 -91.20059 36972 ft 497 kts 150°
2026-04-26 15:23 35.09078 -91.14944 36971 ft 497 kts 150°
2026-04-26 15:23 35.03579 -91.09839 36963 ft 496 kts 150°
2026-04-26 15:24 34.98125 -91.04785 36961 ft 495 kts 150°
2026-04-26 15:24 34.92641 -90.99711 36960 ft 494 kts 150°
2026-04-26 15:25 34.88090 -90.95507 36955 ft 494 kts 149°
2026-04-26 15:25 34.81696 -90.89611 36949 ft 492 kts 149°
2026-04-26 15:26 34.76240 -90.84589 36945 ft 491 kts 149°
2026-04-26 15:26 34.70793 -90.79584 36948 ft 490 kts 150°
2026-04-26 15:27 34.65385 -90.74622 36943 ft 490 kts 150°
2026-04-26 15:27 34.59954 -90.69647 36946 ft 489 kts 150°
2026-04-26 15:28 34.54504 -90.64711 36951 ft 488 kts 150°
2026-04-26 15:28 34.49004 -90.59898 36963 ft 487 kts 151°
2026-04-26 15:29 34.43530 -90.55142 36966 ft 488 kts 151°
2026-04-26 15:30 34.32516 -90.45537 36982 ft 488 kts 151°
2026-04-26 15:30 34.26999 -90.40727 36980 ft 489 kts 151°
2026-04-26 15:31 34.18754 -90.33554 36966 ft 490 kts 151°
2026-04-26 15:32 34.12288 -90.27941 36956 ft 490 kts 151°
2026-04-26 15:32 34.04912 -90.21553 36944 ft 491 kts 151°
2026-04-26 15:33 33.99361 -90.16754 36946 ft 491 kts 151°
2026-04-26 15:33 33.93859 -90.11989 36965 ft 491 kts 151°
2026-04-26 15:34 33.88302 -90.07186 36942 ft 492 kts 151°
2026-04-26 15:34 33.82725 -90.02405 36943 ft 492 kts 151°
2026-04-26 15:35 33.77148 -89.97628 36950 ft 492 kts 151°
2026-04-26 15:35 33.71612 -89.92884 36948 ft 492 kts 151°
2026-04-26 15:36 33.66035 -89.88110 36946 ft 492 kts 150°
2026-04-26 15:36 33.60458 -89.83342 36951 ft 492 kts 150°
2026-04-26 15:37 33.54884 -89.78586 36949 ft 492 kts 150°
2026-04-26 15:37 33.49302 -89.73830 36950 ft 492 kts 150°
2026-04-26 15:38 33.43726 -89.69088 36949 ft 492 kts 150°
2026-04-26 15:38 33.38147 -89.64351 36937 ft 492 kts 150°
2026-04-26 15:39 33.32602 -89.59650 36938 ft 492 kts 150°
2026-04-26 15:39 33.28865 -89.56486 36938 ft 492 kts 150°
2026-04-26 15:40 33.21423 -89.50195 36931 ft 493 kts 150°
2026-04-26 15:40 33.15818 -89.45466 36935 ft 493 kts 150°
2026-04-26 15:41 33.10244 -89.40771 36956 ft 494 kts 150°
2026-04-26 15:41 33.04623 -89.36043 36956 ft 495 kts 150°
2026-04-26 15:42 32.98989 -89.31312 36957 ft 496 kts 150°
2026-04-26 15:42 32.93338 -89.26574 36958 ft 497 kts 150°
2026-04-26 15:43 32.87679 -89.21837 36970 ft 498 kts 150°
2026-04-26 15:44 32.79175 -89.14733 36983 ft 498 kts 150°
2026-04-26 15:44 32.70691 -89.07662 36975 ft 499 kts 150°
2026-04-26 15:45 32.62158 -89.00567 36959 ft 499 kts 150°
2026-04-26 15:46 32.53616 -88.93480 36958 ft 500 kts 150°
2026-04-26 15:46 32.49843 -88.90355 36962 ft 500 kts 150°
2026-04-26 15:47 32.39410 -88.81730 36973 ft 500 kts 150°
2026-04-26 15:48 32.34098 -88.76349 36986 ft 505 kts 139°
2026-04-26 15:48 32.29115 -88.70470 36976 ft 506 kts 138°
2026-04-26 15:49 32.24168 -88.64623 36968 ft 507 kts 139°
2026-04-26 15:49 32.19150 -88.58782 36971 ft 507 kts 139°
2026-04-26 15:50 32.14108 -88.52962 36968 ft 507 kts 139°
2026-04-26 15:50 32.09082 -88.47173 36939 ft 496 kts 139°
2026-04-26 15:50 32.06652 -88.44370 36947 ft 482 kts 139°
2026-04-26 15:51 32.04287 -88.41644 36928 ft 469 kts 139°
2026-04-26 15:51 32.01991 -88.39000 36938 ft 454 kts 139°
2026-04-26 15:51 31.99753 -88.36428 36948 ft 448 kts 140°
2026-04-26 15:52 31.95278 -88.31305 36981 ft 456 kts 139°
2026-04-26 15:52 31.92997 -88.28697 36851 ft 456 kts 139°
2026-04-26 15:52 31.90740 -88.26111 36420 ft 450 kts 139°
2026-04-26 15:52 31.89248 -88.24404 35874 ft 453 kts 139°
2026-04-26 15:53 31.86191 -88.20910 34509 ft 465 kts 139°
2026-04-26 15:53 31.83840 -88.18227 33249 ft 477 kts 139°
2026-04-26 15:53 31.81431 -88.15479 31999 ft 485 kts 138°
2026-04-26 15:53 31.79000 -88.12705 30857 ft 489 kts 137°
2026-04-26 15:54 31.77381 -88.10856 30204 ft 490 kts 137°
2026-04-26 15:54 31.74972 -88.08091 29428 ft 480 kts 137°
2026-04-26 15:54 31.72580 -88.05360 28104 ft 481 kts 136°
2026-04-26 15:54 31.70165 -88.02614 26659 ft 486 kts 136°
2026-04-26 15:55 31.66935 -87.98949 24850 ft 488 kts 136°
2026-04-26 15:55 31.65283 -87.97075 23991 ft 488 kts 136°
2026-04-26 15:55 31.62070 -87.93430 22370 ft 481 kts 136°
2026-04-26 15:55 31.59688 -87.90728 21325 ft 471 kts 136°
2026-04-26 15:56 31.58143 -87.88975 20716 ft 465 kts 137°
2026-04-26 15:56 31.55839 -87.86364 19595 ft 457 kts 137°
2026-04-26 15:56 31.53555 -87.83778 18600 ft 457 kts 137°
2026-04-26 15:56 31.51293 -87.81218 18288 ft 445 kts 137°
2026-04-26 15:57 31.49092 -87.78725 17839 ft 437 kts 137°
2026-04-26 15:57 31.46961 -87.76196 16967 ft 437 kts 137°
2026-04-26 15:57 31.44766 -87.73721 16127 ft 438 kts 138°
2026-04-26 15:57 31.43303 -87.72104 15670 ft 436 kts 138°
2026-04-26 15:58 31.40410 -87.68906 14856 ft 429 kts 137°
2026-04-26 15:58 31.38258 -87.66505 14247 ft 425 kts 137°
2026-04-26 15:58 31.36138 -87.64122 13617 ft 422 kts 137°
2026-04-26 15:58 31.34035 -87.61755 12936 ft 418 kts 136°
2026-04-26 15:59 31.31940 -87.59412 12267 ft 415 kts 138°
2026-04-26 15:59 31.29672 -87.57347 11609 ft 412 kts 148°
2026-04-26 15:59 31.27168 -87.55756 10966 ft 408 kts 154°
2026-04-26 15:59 31.24668 -87.54295 10355 ft 406 kts 154°
2026-04-26 16:00 31.22180 -87.52846 10021 ft 388 kts 153°
2026-04-26 16:00 31.19868 -87.51492 10069 ft 357 kts 153°
2026-04-26 16:00 31.17730 -87.50231 10098 ft 332 kts 153°
2026-04-26 16:00 31.15705 -87.49031 9984 ft 327 kts 153°
2026-04-26 16:01 31.13702 -87.47840 9982 ft 317 kts 153°
2026-04-26 16:01 31.11781 -87.46697 9951 ft 303 kts 153°
2026-04-26 16:01 31.09908 -87.45581 9671 ft 303 kts 153°
2026-04-26 16:01 31.08007 -87.44448 9452 ft 309 kts 153°
2026-04-26 16:02 31.06099 -87.43312 9215 ft 312 kts 153°
2026-04-26 16:02 31.04142 -87.42148 8972 ft 313 kts 153°
2026-04-26 16:02 31.02208 -87.40996 8730 ft 310 kts 153°
2026-04-26 16:02 31.00943 -87.40244 8566 ft 308 kts 153°
2026-04-26 16:03 30.98436 -87.38753 8229 ft 303 kts 153°
2026-04-26 16:03 30.96569 -87.37643 7978 ft 299 kts 153°
2026-04-26 16:03 30.94721 -87.36546 7739 ft 296 kts 153°
2026-04-26 16:03 30.92894 -87.35461 7494 ft 294 kts 153°
2026-04-26 16:04 30.91078 -87.34383 7260 ft 292 kts 153°
2026-04-26 16:04 30.89278 -87.33314 7023 ft 289 kts 153°
2026-04-26 16:04 30.87491 -87.32254 6791 ft 288 kts 153°
2026-04-26 16:04 30.85714 -87.31200 6555 ft 286 kts 153°
2026-04-26 16:05 30.83941 -87.30150 6321 ft 285 kts 153°
2026-04-26 16:05 30.82199 -87.29118 6073 ft 284 kts 153°
2026-04-26 16:05 30.80443 -87.28078 5832 ft 283 kts 153°
2026-04-26 16:05 30.78898 -87.26680 5555 ft 283 kts 127°
2026-04-26 16:06 30.77806 -87.24789 5359 ft 281 kts 121°
2026-04-26 16:06 30.76764 -87.22861 5105 ft 282 kts 121°
2026-04-26 16:06 30.75724 -87.20930 4863 ft 282 kts 121°
2026-04-26 16:06 30.74682 -87.19000 4613 ft 282 kts 122°
2026-04-26 16:07 30.73636 -87.17074 4370 ft 282 kts 122°
2026-04-26 16:07 30.72586 -87.15154 4138 ft 281 kts 123°
2026-04-26 16:07 30.71372 -87.13441 3938 ft 277 kts 136°
2026-04-26 16:07 30.69829 -87.12149 3781 ft 271 kts 154°
2026-04-26 16:08 30.68091 -87.11371 3593 ft 263 kts 163°
2026-04-26 16:08 30.66370 -87.10742 3346 ft 254 kts 164°
2026-04-26 16:08 30.64746 -87.10153 3242 ft 238 kts 163°
2026-04-26 16:08 30.63188 -87.09607 2830 ft 229 kts 165°
2026-04-26 16:09 30.61716 -87.09110 2597 ft 212 kts 167°
2026-04-26 16:09 30.60307 -87.08825 2224 ft 201 kts 176°
2026-04-26 16:09 30.58943 -87.08787 1955 ft 189 kts 184°
2026-04-26 16:09 30.57706 -87.08843 1921 ft 174 kts 184°
2026-04-26 16:10 30.56537 -87.08893 1921 ft 163 kts 183°
2026-04-26 16:10 30.55403 -87.08937 1885 ft 164 kts 184°
2026-04-26 16:10 30.54263 -87.08984 1879 ft 163 kts 185°
2026-04-26 16:10 30.53133 -87.09039 1851 ft 163 kts 185°
2026-04-26 16:11 30.52009 -87.09134 1849 ft 163 kts 187°
2026-04-26 16:11 30.50886 -87.09380 1729 ft 165 kts 201°
2026-04-26 16:11 30.49896 -87.09986 1611 ft 158 kts 219°
2026-04-26 16:11 30.49142 -87.10898 1298 ft 156 kts 235°
2026-04-26 16:12 30.48596 -87.11947 1075 ft 153 kts 246°
2026-04-26 16:12 30.48292 -87.13120 844 ft 154 kts 261°
2026-04-26 16:12 30.47873 -87.15547 476 ft 153 kts 260°
2026-04-26 16:13 30.47658 -87.16758 249 ft 153 kts 261°
2026-04-26 16:13 30.47435 -87.17940 114 ft 139 kts 258°
2026-04-26 16:13 30.47283 -87.18784 112 ft 75 kts 258°
2026-04-26 16:13 30.47198 -87.19243 104 ft 44 kts 258°
2026-04-26 16:14 30.47151 -87.19500 105 ft 25 kts 258°
2026-04-26 16:14 30.47176 -87.19592 104 ft 12 kts 341°
2026-04-26 16:14 30.47285 -87.19522 105 ft 10 kts 78°
2026-04-26 16:15 30.47299 -87.19442 105 ft 10 kts 78°
2026-04-26 16:15 30.47316 -87.19349 105 ft 13 kts 78°
2026-04-26 16:15 30.47381 -87.19296 108 ft 11 kts 14°
2026-04-26 16:16 30.47427 -87.19121 111 ft 13 kts 56°
2026-04-26 16:16 30.47496 -87.19071 112 ft 12 kts 356°
2026-04-26 16:16 30.47574 -87.19087 114 ft 11 kts 346°
2026-04-26 16:16 30.47624 -87.19148 115 ft 11 kts 286°
2026-04-26 16:17 30.47629 -87.19225 117 ft 7 kts 250°
2026-04-26 16:17 30.47606 -87.19265 118 ft 4 kts 229°
2026-04-26 16:17 30.47597 -87.19273 117 ft 0 kts 214°